Regional Weather Roundup
Issued by NWS

Home | Current Version | Previous Version | Text Only | Print | Product List | Glossary Off
Versions: 1 2 3 4 5 6 7 8 9 10 11 12 13 14 15 16 17 18 19 20 21 22 23 24 25 26 27 28 29 30 31 32 33 34 35 36 37 38 39 40 41 42 43 44 45 46 47 48 49 50

000
ASUS43 KFSD 220502
RWRSD

WEATHER ROUNDUP FOR SOUTH DAKOTA
NATIONAL WEATHER SERVICE SIOUX FALLS SD
1100 PM CST SAT JAN 21 2017

NOTE: "FAIR" INDICATES FEW OR NO CLOUDS BELOW 12,000 FEET WITH NO
SIGNIFICANT WEATHER AND/OR OBSTRUCTIONS TO VISIBILITY.


SDZ001>005-009-010-012>017-220600-
NORTHWEST AND NORTH CENTRAL SOUTH DAKOTA

CITY           SKY/WX    TMP DP  RH WIND       PRES   REMARKS
BUFFALO          N/A     23  19  85 NW9       29.54R WCI  13
FAITH            N/A     22  20  92 NW12      29.60R WCI  10
MOBRIDGE       FOG       15  11  83 CALM      29.57R VSB 1/4
$$

SDZ012>016-024>037-041>051-057-063-072>074-220600-
SOUTHWEST AND SOUTH CENTRAL SOUTH DAKOTA

CITY           SKY/WX    TMP DP  RH WIND       PRES   REMARKS
RAPID CTY ARPT CLOUDY    28  22  78 N12       29.62R WCI  18
PIERRE         CLEAR     20  17  88 NW10      29.58R WCI   9
CUSTER         CLOUDY    25  22  88 CALM      29.59R
ELLSWORTH AFB  CLOUDY    29  22  76 N9        29.62R WCI  20
PHILIP         CLEAR     24  22  91 W9        29.62R WCI  14
PINE RIDGE     CLOUDY    20  18  92 CALM      29.65R
SPEARFISH      FAIR      28  21  74 W5        29.63R WCI  23
WINNER         FAIR      29  26  89 W8        29.61R WCI  21
$$

SDZ004>011-016>023-039-040-220600-
NORTHEAST SOUTH DAKOTA

CITY           SKY/WX    TMP DP  RH WIND       PRES   REMARKS
ABERDEEN       CLOUDY    33  29  85 NW8       29.58R WCI  26
WATERTOWN      CLOUDY    30  29  96 NW8       29.55R WCI  22
BROOKINGS      CLOUDY    31  29  92 MISG      29.55R
SISSETON         N/A     33  33 100 N3        29.56R
$$

SDZ017-020-022-023-036>040-048>070-220600-
SOUTHEAST SOUTH DAKOTA

CITY           SKY/WX    TMP DP  RH WIND       PRES   REMARKS
SIOUX FALLS    CLOUDY    32  30  92 NW8       29.57R WCI  25
HURON          CLOUDY    31  29  92 NW6       29.59R WCI  25
CHAMBERLAIN    FOG       28  28 100 CALM      29.60R VSB 1/4
MITCHELL       CLOUDY    32  30  92 NW8       29.60R WCI  25
YANKTON        CLOUDY    28  27  93 W6        29.60R WCI  22
$$

ABBREVIATIONS USED IN REMARKS
   TC - TEMPERATURE IN CELSIUS
  WCI - WIND CHILL INDEX
   HX - HEAT INDEX
  VSB - VISIBILITY




USA.gov is the U.S. government's official web portal to all federal, state and local government web resources and services.